Location: South Tidworth
(51.2167°N, 1.6500°W)
Time: 00:09:03
(UTC+00:00)

Daily predictions for brighter satellites

Satellite Brightness Start Highest point End
(mag) Time Altitude Azimuth Time Altitude Azimuth Time Altitude Azimuth
Cosmos 2082 Rocket 3.3 03:52:50 40° E 03:52:50 40° E 03:57:07 10° ESE
COSMOS 2455 4.1 03:57:05 33° SE 03:57:05 33° SE 04:00:15 10° SE
Cosmos 2278 Rocket 3.0 04:13:39 45° SE 04:14:29 48° ESE 04:19:56 10° NE
USA 215 3.2 04:11:52 10° SE 04:17:51 69° S 04:17:51 69° S
BREEZE M DEB (TANK) 4.4 04:21:18 41° SE 04:21:18 41° SE 04:23:37 10° E
CZ-2C R/B 3.9 04:16:57 10° SE 04:22:02 39° ENE 04:26:50 11° N
Cosmos 540 Rocket 4.0 04:25:25 54° ESE 04:25:25 54° ESE 04:29:31 10° SE
Cosmos 1833 Rocket 4.2 04:34:00 24° S 04:34:00 24° S 04:36:15 10° S
Cosmos 841 Rocket 3.4 04:48:36 74° N 04:49:01 82° ENE 04:54:11 10° SSE
Envisat 3.8 04:53:00 10° NNE 04:57:58 50° E 05:02:54 10° S
H-2A R/B 4.4 04:55:10 10° ESE 04:58:23 22° ENE 05:01:40 10° N
SL-19 R/B 4.1 04:55:43 10° SSE 05:01:22 75° WSW 05:03:26 40° NNW
Cosmos 1570 Rocket 4.4 05:01:27 28° N 05:04:10 63° ENE 05:09:22 10° SE
YAOGAN 6 3.1 05:02:35 10° NNE 05:06:16 59° E 05:09:53 10° S
Cosmos 1076 Rocket 3.8 05:03:42 10° S 05:08:02 66° E 05:12:23 10° NNE
Cosmos 1867 3.8 05:10:50 36° NNW 05:13:03 69° NE 05:18:30 10° SE
COSMO-SKYMED 1 2.4 05:08:54 10° SSE 05:13:14 90° WSW 05:14:38 43° NNW
APEX 4.0 05:16:51 35° E 05:16:51 35° E 05:18:56 10° SE
Cosmos 1464 Rocket 4.0 05:10:15 10° NNW 05:16:26 55° W 05:22:30 10° SSW
NOSS 3-2 (A) 4.4 05:13:51 10° SSW 05:19:08 45° ESE 05:25:14 10° NE
H-2A R/B 2.7 05:15:35 10° NNE 05:19:16 76° ESE 05:22:58 10° S
Geosat FO 4.4 05:17:59 10° SE 05:21:18 79° ENE 05:21:18 79° ENE
Helios 1B 4.5 05:20:40 10° S 05:24:57 63° WSW 05:25:50 50° NW
CENTAUR R/B 3.7 05:20:26 10° S 05:25:56 42° ESE 05:32:27 10° NE
Cosmos 2208 Rocket 4.2 05:24:24 19° NNW 05:28:27 79° ENE 05:33:53 10° SSE
Gbstr 26 Del rocket 2.9 05:28:19 52° SW 05:28:39 54° SSW 05:32:44 10° SE
Cosmos 1814 Rocket 3.8 05:28:34 29° NNW 05:31:14 74° WSW 05:36:21 10° SSE
Meteor 2-3 Rocket 4.0 05:26:32 10° S 05:32:07 70° E 05:37:49 10° NNE
COSMOS 2406 4.3 05:34:29 25° WSW 05:34:29 25° WSW 05:37:58 10° SSW
Landsat 5 3.5 05:29:16 10° S 05:33:45 72° WSW 05:36:50 20° NNW
Cosmos 2263 Rocket 4.4 05:33:30 10° NNW 05:33:47 10° N 05:34:05 10° N
Cosmos 2082 Rocket 2.6 05:34:44 36° W 05:35:48 39° WSW 05:40:57 10° S
Meteor 1-26 Rocket 4.3 05:31:07 10° NNW 05:37:13 90° ESE 05:43:07 10° S
COSMOS 2455 4.1 05:40:18 22° WSW 05:40:18 22° WSW 05:44:00 10° SSW
Cosmos 1850 Rocket 4.0 05:35:41 10° SW 05:40:58 61° WNW 05:46:18 10° NNE
Cosmos 2297 4.4 05:36:49 10° S 05:42:25 56° ESE 05:48:02 10° NE
CZ-4B R/B 3.8 05:40:01 10° ESE 05:42:41 22° ENE 05:45:22 10° NNE
Kosmos-917 3.8 05:43:21 26° SW 05:44:52 83° SE 05:50:02 10° NE
Cosmos 1844 Rocket 4.4 05:49:23 15° NNW 05:49:38 15° NNW 05:52:49 10° N
Cosmos 1782 2.6 05:48:34 14° NNW 05:52:00 74° W 05:55:56 10° S
NOAA 11 4.5 05:49:02 10° NNE 05:54:31 71° ESE 05:59:58 10° S
CZ-2C R/B 3.6 05:51:31 10° NNE 05:56:13 55° E 06:01:00 10° S
Cosmos 2034 Rocket 4.4 05:52:09 10° NNW 05:57:49 39° W 06:03:32 10° SSW
Cosmos 2278 Rocket 2.7 05:55:34 21° WSW 05:58:44 38° NW 06:04:02 10° NNE
SKYMED 2 4.3 05:57:35 10° SSW 06:01:29 32° W 06:03:13 24° NW
USA 215 4.3 05:56:52 10° S 06:02:10 26° SW 06:05:12 19° W
CZ-2C R/B 3.1 05:57:08 10° SSW 06:02:19 40° W 06:07:27 10° NNW
Cosmos 1943 Rocket 2.4 05:56:46 10° SSW 06:02:26 76° ESE 06:08:07 10° NNE
Cosmos 1933 3.9 06:03:35 22° NW 06:05:35 35° W 06:09:15 10° SSW
Cosmos 2344 3.5 06:01:02 10° SW 06:08:25 77° NW 06:16:36 10° NE
IRAS Rocket 4.2 06:03:54 10° S 06:09:23 62° WSW 06:14:51 10° NNW
SJ-7 4.4 06:05:48 10° NNE 06:10:04 88° WNW 06:14:17 10° SSW
ADEOS 3.5 06:04:57 10° NNE 06:10:13 79° WNW 06:15:25 10° SSW
CZ-4B R/B 4.4 06:06:57 10° N 06:11:05 44° WNW 06:15:18 10° SW
Meteor 1-31 Rocket 3.1 06:08:15 10° N 06:11:53 40° WNW 06:15:31 10° SW
SL-8 R/B 4.0 06:13:03 16° WSW 06:16:51 64° S 06:21:35 10° E
Iridium 2 3.6 06:13:30 10° SSW 06:17:17 71° W 06:21:06 10° N
Cosmos 2279 Rocket 3.9 06:12:56 10° NNW 06:19:10 81° W 06:25:20 10° S
Cosmos 2151 3.5 06:16:18 10° SW 06:20:18 38° WNW 06:24:21 10° N
DNEPR-1 R/B 4.1 06:17:44 14° NW 06:21:42 68° NE 06:27:00 10° SE
Tsikada Rocket 4.2 06:17:16 10° SSW 06:23:12 48° WNW 06:29:16 10° N
Cosmos 1812 2.8 06:20:26 10° NNW 06:24:13 54° W 06:27:58 10° S
CZ-4C R/B 4.1 06:21:47 10° SSW 06:24:19 21° W 06:25:03 20° WNW
Cosmos 1634 Rocket 4.2 06:19:57 10° NNW 06:26:01 49° W 06:31:59 10° SSW
Cosmos 1939 Rocket 2.9 06:27:40 10° NNE 06:31:43 83° ESE 06:35:39 10° SSW
H-2A R/B 2.2 06:29:55 10° S 06:34:01 53° W 06:38:15 10° NNW
SMAP 3.3 06:30:38 10° NNE 06:35:19 74° ESE 06:39:58 10° S
Genesis I 3.4 06:31:59 14° NW 06:35:28 59° SW 06:39:29 10° SSE
Meteor 1-27 Rocket 4.2 06:30:57 10° N 06:36:30 63° ENE 06:42:06 10° SSE
Envisat 3.8 06:32:27 10° N 06:36:47 29° WNW 06:41:05 10° WSW
CZ-2D R/B 4.4 06:34:28 10° NNE 06:38:10 47° E 06:41:50 10° S
YAOGAN 6 4.2 06:37:04 10° NNW 06:39:17 15° WNW 06:41:29 10° W
Cosmos 1766 Rocket 3.5 06:35:03 10° SSW 06:39:24 75° W 06:43:46 10° N
Cosmos 2098 Rocket 2.8 06:36:07 10° SSW 06:39:32 54° WNW 06:43:48 10° N
Cosmos 2297 Rocket 4.1 06:40:10 10° NNW 06:44:28 21° NE 06:48:45 10° E
Lacrosse 4 Rocket 3.9 06:47:05 10° N 06:47:50 10° NNE 06:48:35 10° NNE
FALCON 9 DEB 3.8 06:47:00 10° SW 06:49:46 45° SSE 06:52:32 10° ENE
COSMO-SKYMED 1 4.4 06:48:24 10° WSW 06:50:05 12° W 06:51:45 10° WNW
H-2A R/B 4.5 06:51:13 10° NNW 06:52:52 13° WNW 06:54:32 10° W
Cosmos 2369 Rocket 2.3 06:48:20 10° SSW 06:53:55 85° ESE 06:59:33 10° NNE
Cosmos 921 Rocket 3.8 06:50:46 10° NW 06:54:39 32° WSW 06:58:34 10° SSW
FALCON 9 DEB 3.4 06:52:46 10° SW 06:55:34 54° SSE 06:58:24 10° ENE
Cosmos 1328 Rocket 4.0 06:52:16 10° NNW 06:56:28 43° W 07:00:37 10° SSW
Cosmos 2084 Rocket 3.4 06:53:33 10° WSW 06:57:18 49° NW 07:01:08 10° NE
Alouette 2 Rocket 3.9 06:53:00 10° N 06:57:47 64° ENE 07:01:26 10° SSE
Aureole 1 Rocket 2.9 06:55:24 10° WSW 06:58:07 29° WNW 07:00:50 10° N
FALCON 9 DEB 4.2 06:56:13 10° SW 06:58:57 39° SSE 07:01:42 10° E
SL-27 R/B 3.3 06:55:43 10° NNW 06:59:15 51° ENE 07:02:44 10° SE
H-2A R/B 2.5 06:55:24 10° NNE 07:00:21 63° ESE 07:05:12 10° S
PSLV R/B 4.0 06:56:45 10° S 07:00:45 61° WSW 07:04:47 10° NNW
Cosmos 1151 Rocket 4.0 06:58:37 10° NNW 07:02:22 28° W 07:06:06 10° SSW
NOAA 12 4.3 06:58:26 10° N 07:03:35 52° WNW 07:08:40 10° SW
CZ-4B R/B 3.4 07:01:12 10° N 07:04:27 30° WNW 07:07:36 10° SW
Meteor 1-10 Rocket 4.4 07:00:40 10° NNW 07:06:07 53° W 07:11:28 10° S
CZ-4B DEB 4.3 07:01:51 10° NNE 07:07:22 88° ESE 07:12:50 10° SSW
